Total_Precipitation_Accumulation
0.91 0.87 0.80 0.80 0.75 0.84 0.98 1.08 1.03 0.92 0.89 0.82 0.76 0.87 0.95 1.03 1.07 1.14 1.24 1.27 1.47 1.82 2.07 2.06 1.84 1.59 1.48 1.51 1.58 1.61 1.68 1.80 1.80 1.80 1.84 1.80 1.77 1.65 1.55 1.54 1.49 1.44 1.50
0.95 0.91 0.87 0.90 0.87 0.91 1.04 1.05 0.94 1.00 1.03 0.94 0.81 0.83 0.95 1.02 1.09 1.09 1.13 1.23 1.32 1.46 1.92 2.20 2.15 1.95 1.88 1.75 1.87 1.93 1.90 1.73 1.65 1.74 1.78 1.80 1.83 1.67 1.55 1.49 1.43 1.32 1.31
0.85 0.88 0.89 0.90 0.95 1.05 1.11 1.14 0.96 1.00 0.99 0.91 0.86 0.83 0.86 0.89 0.95 1.00 0.96 0.95 1.05 1.22 1.55 1.98 2.31 2.30 2.34 2.29 2.12 2.03 1.89 1.69 1.64 1.67 1.73 1.69 1.75 1.69 1.58 1.60 1.48 1.43 1.39
0.78 0.92 0.93 0.91 0.95 1.09 1.20 1.25 1.15 1.12 1.07 1.03 1.01 0.96 0.89 0.93 0.89 0.93 0.93 0.88 1.03 1.00 1.22 1.46 1.80 2.07 2.35 2.35 2.16 2.06 1.89 1.59 1.51 1.61 1.67 1.57 1.61 1.65 1.52 1.61 1.51 1.42 1.37
0.85 1.02 1.13 1.15 1.15 1.18 1.18 1.14 1.20 1.21 1.19 1.20 1.12 1.08 1.01 0.98 1.01 0.92 0.93 0.98 0.94 0.98 1.10 1.00 1.10 1.34 1.76 2.02 2.11 2.26 2.16 1.71 1.48 1.56 1.66 1.49 1.49 1.61 1.48 1.49 1.45 1.34 1.28
1.20 1.34 1.35 1.43 1.49 1.39 1.37 1.32 1.35 1.29 1.23 1.29 1.19 1.09 1.02 0.94 1.03 1.04 1.03 1.03 0.99 0.96 1.09 1.05 1.03 0.98 1.23 1.56 1.86 2.22 2.41 2.02 1.71 1.64 1.74 1.62 1.51 1.61 1.47 1.45 1.47 1.25 1.17
1.53 1.75 1.72 1.78 1.81 1.72 1.70 1.74 1.93 1.88 1.61 1.37 1.43 1.28 1.09 0.95 1.07 1.11 1.10 1.13 1.14 1.21 1.28 1.24 1.14 1.09 0.97 1.04 1.27 1.74 2.34 2.25 2.02 1.81 1.78 1.70 1.50 1.45 1.32 1.32 1.39 1.29 1.14
1.45 1.59 1.85 1.96 1.90 1.96 2.10 2.11 2.46 2.60 2.14 1.70 1.72 1.89 1.62 1.40 1.14 1.01 1.06 1.08 1.20 1.41 1.43 1.25 1.16 1.09 0.99 0.98 0.81 1.11 1.73 2.04 2.04 1.93 1.79 1.65 1.50 1.35 1.32 1.41 1.39 1.43 1.31
1.42 1.53 1.68 1.84 1.86 1.94 2.05 2.20 2.54 3.03 2.79 2.21 1.96 2.25 1.99 1.73 1.54 1.20 1.04 1.04 1.19 1.43 1.61 1.51 1.36 1.25 1.08 1.08 0.95 0.86 1.06 1.36 1.88 2.12 2.05 1.84 1.73 1.51 1.44 1.57 1.41 1.53 1.56
1.31 1.38 1.52 1.66 1.79 1.82 1.96 2.06 2.19 2.70 3.06 2.74 2.42 2.09 1.77 1.70 1.81 1.61 1.25 1.19 1.24 1.31 1.43 1.42 1.41 1.44 1.32 1.20 1.05 0.85 0.85 0.95 1.53 1.98 2.20 2.16 2.02 1.82 1.80 1.97 1.70 1.57 1.56
1.42 1.41 1.55 1.62 1.64 1.70 1.80 2.13 2.40 2.67 2.88 2.85 2.76 2.57 2.29 2.02 1.69 1.81 1.72 1.48 1.37 1.28 1.31 1.35 1.37 1.42 1.44 1.36 1.37 1.08 0.87 0.86 1.15 1.61 2.07 2.38 2.32 2.18 2.28 2.36 1.98 1.79 1.71
1.53 1.56 1.61 1.62 1.59 1.62 1.73 1.95 2.24 2.46 2.78 2.96 2.85 2.65 2.51 2.37 2.16 2.04 1.80 1.67 1.64 1.45 1.36 1.35 1.28 1.31 1.42 1.56 1.48 1.43 1.05 0.85 0.88 1.19 1.53 1.92 2.21 2.32 2.49 2.52 2.26 2.22 2.06
1.43 1.45 1.55 1.67 1.75 1.78 1.89 2.06 2.20 2.12 2.33 2.72 2.72 2.57 2.47 2.27 2.25 2.29 2.12 1.81 1.68 1.41 1.32 1.27 1.23 1.35 1.34 1.37 1.57 1.74 1.26 0.97 0.81 1.01 1.19 1.33 1.59 1.94 2.37 2.62 2.60 2.59 2.50
1.37 1.32 1.36 1.46 1.60 1.77 1.82 1.86 1.88 1.85 1.98 2.23 2.31 2.48 2.58 2.34 2.20 2.08 2.00 2.04 1.81 1.54 1.39 1.27 1.17 1.20 1.24 1.29 1.50 1.67 1.29 1.08 0.83 0.79 0.88 1.07 1.18 1.31 1.65 2.08 2.47 2.58 2.72
1.14 1.06 1.06 1.10 1.19 1.27 1.35 1.50 1.60 1.71 1.75 1.89 2.03 2.16 2.30 2.40 2.31 2.10 2.01 1.98 1.95 1.77 1.56 1.44 1.28 1.11 1.22 1.33 1.52 1.36 1.22 1.21 1.02 0.84 0.77 0.84 0.96 1.00 1.14 1.27 1.50 1.83 2.25
1.05 0.98 0.94 0.90 0.87 0.85 0.90 1.08 1.28 1.41 1.51 1.66 1.84 1.97 2.00 2.06 2.25 2.21 2.02 1.99 1.91 1.80 1.66 1.47 1.37 1.23 1.41 1.33 1.45 1.30 1.30 1.36 1.07 0.94 0.86 0.82 0.83 0.77 0.76 0.80 0.83 0.99 1.38
1.03 1.01 0.93 0.86 0.93 0.94 0.90 0.96 1.03 1.09 1.16 1.31 1.45 1.57 1.73 1.99 2.29 2.30 2.24 2.11 1.98 1.85 1.63 1.48 1.27 1.20 1.51 1.62 1.52 1.41 1.37 1.32 1.08 0.98 0.90 0.82 0.80 0.75 0.70 0.64 0.65 0.70 0.84
0.70 0.79 0.88 0.83 0.81 0.85 0.87 0.93 0.96 1.00 1.02 1.11 1.22 1.35 1.53 1.81 2.16 2.37 2.44 2.32 2.16 2.01 1.88 1.73 1.40 1.17 1.29 1.63 1.77 1.70 1.47 1.29 1.15 1.07 0.95 0.85 0.79 0.73 0.68 0.66 0.65 0.65 0.66
0.54 0.58 0.67 0.68 0.78 0.85 0.87 0.89 0.91 0.95 0.97 1.05 1.20 1.25 1.31 1.50 1.70 1.91 2.09 2.21 2.20 2.17 2.15 1.91 1.60 1.34 1.27 1.40 1.66 1.68 1.60 1.55 1.32 1.24 1.24 1.12 0.98 0.88 0.78 0.69 0.68 0.65 0.62
0.59 0.64 0.76 0.79 0.75 0.73 0.78 0.88 0.92 0.87 0.85 0.89 0.98 1.08 1.17 1.22 1.37 1.51 1.62 1.82 2.03 2.27 2.35 2.20 1.92 1.60 1.48 1.37 1.47 1.63 1.70 1.66 1.57 1.38 1.33 1.22 1.20 1.14 1.02 0.86 0.73 0.67 0.67
0.66 0.68 0.77 0.87 0.93 0.87 0.85 0.93 0.89 0.87 0.86 0.85 0.89 0.90 0.97 0.99 1.05 1.23 1.28 1.50 1.83 2.10 2.21 2.28 2.15 1.85 1.58 1.40 1.20 1.30 1.56 1.78 1.80 1.71 1.70 1.45 1.31 1.17 1.09 1.05 0.97 0.85 0.76
0.54 0.53 0.57 0.64 0.73 0.77 0.98 0.93 0.76 0.72 0.77 0.84 0.88 0.88 0.89 0.84 0.82 0.89 1.02 1.15 1.45 1.67 1.81 1.89 1.91 1.75 1.53 1.40 1.35 1.31 1.39 1.53 1.59 1.49 1.54 1.61 1.54 1.38 1.28 1.15 1.17 1.20 1.12
0.44 0.42 0.42 0.42 0.48 0.63 0.72 0.56 0.54 0.59 0.73 0.84 0.91 0.94 0.90 0.84 0.89 0.90 0.92 0.93 1.00 1.18 1.39 1.60 1.63 1.53 1.59 1.50 1.41 1.31 1.32 1.34 1.33 1.44 1.51 1.59 1.57 1.46 1.38 1.36 1.39 1.29 1.23
0.37 0.36 0.41 0.47 0.49 0.51 0.58 0.48 0.46 0.56 0.75 0.88 0.89 0.84 0.91 0.92 0.94 1.01 0.94 1.01 0.97 0.95 1.04 1.09 1.22 1.43 1.57 1.74 1.71 1.61 1.61 1.55 1.46 1.56 1.58 1.53 1.44 1.36 1.27 1.25 1.30 1.18 1.10
0.42 0.41 0.51 0.58 0.52 0.46 0.51 0.52 0.56 0.70 0.82 0.90 0.87 0.87 0.94 0.98 1.11 1.16 1.07 1.12 1.08 1.05 1.02 1.12 1.22 1.33 1.41 1.53 1.68 1.72 1.68 1.64 1.50 1.43 1.44 1.39 1.29 1.30 1.30 1.19 1.11 1.11 1.01
0.35 0.42 0.44 0.41 0.42 0.48 0.55 0.53 0.65 0.83 0.95 1.05 1.00 0.99 1.18 1.13 1.11 1.06 1.04 1.18 1.15 1.01 0.94 0.98 1.03 1.12 1.16 1.25 1.38 1.43 1.55 1.62 1.53 1.38 1.21 1.20 1.20 1.24 1.28 1.17 1.06 1.00 0.96